Location: Unspecified
(0.0000°N, 0.0000°E)
Time: 17:10:24
(UTC+00:00)

COSMOS 2489 - Pass Details

Date: 13 June 2023
Orbit: 1477 x 1512 km, 82.5° (Epoch: 01 October)

Event Time Altitude Azimuth Distance (km) Brightness Sun altitude
Rises 05:00:21 0° 320° (NW) 4,642 ? -13.7°
Reaches altitude 10° 05:04:50 10° 300° (WNW) 3,664 ? -12.7°
Maximum altitude 05:09:32 16° 267° (W) 3,239 ? -11.6°
Enters shadow 05:12:53 13° 242° (WSW) 3,459 ? -10.8°
